TimeAEST,TemperatureF,Dew PointF,Humidity,Sea Level PressureIn,VisibilityMPH,Wind Direction,Wind SpeedMPH,Gust SpeedMPH,PrecipitationIn,Events,Conditions,WindDirDegrees,DateUTC
12:00 AM,80,76,84,29.31,,North,24.2,,,,,0,2013-01-23 14:00:00
12:00 AM,80.6,77.0,89,29.30,6.2,North,24.2,36.8,N/A,,Mostly Cloudy,360,2013-01-23 14:00:00
12:36 AM,80.6,77.0,89,29.30,6.2,North,23.0,34.5,N/A,,Overcast,350,2013-01-23 14:36:00
1:00 AM,79,77,92,29.29,,North,21.9,,,,,350,2013-01-23 15:00:00
1:00 AM,78.8,77.0,94,29.27,2.5,North,21.9,-,N/A,Rain,Light Rain Showers,350,2013-01-23 15:00:00
1:12 AM,78.8,75.2,89,29.27,6.2,NW,13.8,-,N/A,,Overcast,320,2013-01-23 15:12:00
1:30 AM,78.8,73.4,83,29.27,6.2,NW,16.1,-,N/A,,Mostly Cloudy,320,2013-01-23 15:30:00
2:00 AM,78.8,75.2,89,29.27,6.2,NNW,15.0,-,N/A,,Mostly Cloudy,330,2013-01-23 16:00:00
2:30 AM,78.8,75.2,89,29.24,6.2,NNW,18.4,-,N/A,,Mostly Cloudy,340,2013-01-23 16:30:00
3:00 AM,78,74,86,29.26,,NNW,16.1,,,,,340,2013-01-23 17:00:00
3:00 AM,78.8,75.2,89,29.27,6.2,NNW,16.1,-,N/A,,Mostly Cloudy,340,2013-01-23 17:00:00
3:30 AM,78.8,75.2,89,29.24,6.2,NNW,16.1,-,N/A,,Mostly Cloudy,340,2013-01-23 17:30:00
4:00 AM,78,74,86,29.28,,NNW,13.8,,,,,340,2013-01-23 18:00:00
4:00 AM,78.8,75.2,89,29.27,6.2,NNW,13.8,-,N/A,,Mostly Cloudy,340,2013-01-23 18:00:00
4:30 AM,78.8,73.4,83,29.27,6.2,NNW,13.8,-,N/A,,Mostly Cloudy,340,2013-01-23 18:30:00
5:00 AM,80.6,71.6,74,29.27,6.2,NW,16.1,-,N/A,Rain,Light Rain Showers,310,2013-01-23 19:00:00
5:22 AM,78.8,71.6,78,29.30,6.2,NW,17.3,28.8,N/A,Rain,Light Rain Showers,310,2013-01-23 19:22:00
5:30 AM,78.8,71.6,78,29.30,6.2,WNW,13.8,27.6,N/A,Rain,Light Rain Showers,300,2013-01-23 19:30:00
6:00 AM,80,71,67,29.33,16,NW,15.0,,,Rain,Light Rain,310,2013-01-23 20:00:00
6:00 AM,78.8,71.6,78,29.33,6.2,NW,15.0,-,N/A,Rain,Light Rain,310,2013-01-23 20:00:00
6:16 AM,80.6,71.6,74,29.36,6.2,NW,17.3,29.9,N/A,,Overcast,320,2013-01-23 20:16:00
6:30 AM,78.8,71.6,78,29.36,6.2,NNW,17.3,29.9,N/A,Rain,Light Rain,330,2013-01-23 20:30:00
7:00 AM,79,72,75,29.40,,NNW,16.1,,,,,340,2013-01-23 21:00:00
7:00 AM,78.8,73.4,83,29.39,6.2,NNW,16.1,-,N/A,Rain,Light Rain Showers,340,2013-01-23 21:00:00
7:30 AM,78.8,73.4,83,29.42,6.2,NNW,13.8,-,N/A,Rain,Light Rain,330,2013-01-23 21:30:00
8:00 AM,78.8,73.4,83,29.42,6.2,NNW,13.8,-,N/A,Rain,Light Rain,340,2013-01-23 22:00:00
8:30 AM,80.6,73.4,79,29.42,6.2,NNW,12.7,-,N/A,,Overcast,330,2013-01-23 22:30:00
9:00 AM,83,74,66,29.44,19,NW,13.8,,,Rain,Light Rain,320,2013-01-23 23:00:00
9:00 AM,82.4,73.4,74,29.42,6.2,NW,13.8,-,N/A,Rain,Light Rain,320,2013-01-23 23:00:00
9:30 AM,84.2,73.4,70,29.42,6.2,NW,12.7,-,N/A,,Overcast,320,2013-01-23 23:30:00
9:40 AM,84.2,73.4,70,29.42,6.2,North,17.3,29.9,N/A,,Overcast,350,2013-01-23 23:40:00
10:00 AM,84,73,63,29.45,,NW,12.7,,,,,320,2013-01-24 00:00:00
10:00 AM,84.2,73.4,70,29.44,6.2,NW,12.7,-,N/A,,Overcast,320,2013-01-24 00:00:00
10:30 AM,84.2,73.4,70,29.44,5.6,NW,15.0,-,N/A,Rain,Light Rain Showers,320,2013-01-24 00:30:00
10:48 AM,84.2,73.4,70,29.44,6.2,NW,17.3,28.8,N/A,,Overcast,320,2013-01-24 00:48:00
11:00 AM,84.2,73.4,70,29.44,6.2,NW,17.3,28.8,N/A,Rain,Light Rain Showers,320,2013-01-24 01:00:00
11:30 AM,80.6,75.2,84,29.44,5.0,NNW,15.0,28.8,N/A,Rain,Light Rain Showers,330,2013-01-24 01:30:00
12:00 PM,80,77,88,29.46,5,North,11.5,,,Rain,Light Rain Showers,350,2013-01-24 02:00:00
12:00 PM,78.8,77.0,94,29.44,5.0,North,11.5,-,N/A,Rain,Light Rain Showers,350,2013-01-24 02:00:00
12:06 PM,80.6,78.8,94,29.44,2.5,North,9.2,-,N/A,Rain,Light Rain Showers,360,2013-01-24 02:06:00
12:30 PM,82.4,75.2,79,29.44,6.2,NNW,12.7,-,N/A,Rain,Light Rain Showers,330,2013-01-24 02:30:00
1:00 PM,82,77,81,29.45,,NNW,11.5,,,,,340,2013-01-24 03:00:00
1:00 PM,82.4,77.0,84,29.44,6.2,NNW,11.5,-,N/A,,Overcast,340,2013-01-24 03:00:00
1:30 PM,80.6,78.8,94,29.42,6.2,North,10.4,-,N/A,,Mostly Cloudy,10,2013-01-24 03:30:00
2:00 PM,80.6,77.0,89,29.42,6.2,North,16.1,-,N/A,,Mostly Cloudy,360,2013-01-24 04:00:00
2:30 PM,82.4,75.2,79,29.42,6.2,NNW,11.5,-,N/A,,Overcast,330,2013-01-24 04:30:00
2:44 PM,82.4,77.0,84,29.42,6.2,North,8.1,-,N/A,Rain,Light Rain Showers,360,2013-01-24 04:44:00
2:58 PM,78.8,75.2,89,29.42,2.5,West,6.9,-,N/A,Rain,Light Rain Showers,280,2013-01-24 04:58:00
3:00 PM,79,76,86,29.43,4,WNW,6.9,,,Rain,Light Rain Showers,290,2013-01-24 05:00:00
3:00 PM,78.8,75.2,89,29.42,3.7,WNW,6.9,-,N/A,Rain,Light Rain Showers,290,2013-01-24 05:00:00
3:20 PM,78.8,77.0,94,29.42,6.2,NNW,4.6,-,N/A,,Overcast,330,2013-01-24 05:20:00
3:30 PM,80.6,77.0,89,29.42,6.2,NNW,4.6,-,N/A,,Overcast,340,2013-01-24 05:30:00
4:00 PM,79,76,88,29.44,,West,6.9,,,,,270,2013-01-24 06:00:00
4:00 PM,78.8,77.0,94,29.42,3.1,West,6.9,-,N/A,Rain,Light Rain Showers,270,2013-01-24 06:00:00
4:22 PM,78.8,73.4,83,29.42,5.6,WNW,9.2,-,N/A,Rain,Light Rain Showers,300,2013-01-24 06:22:00
4:30 PM,77.0,73.4,89,29.42,3.1,NW,11.5,-,N/A,Rain,Light Rain,320,2013-01-24 06:30:00
5:00 PM,77.0,73.4,89,29.42,6.2,NW,6.9,-,N/A,,Overcast,310,2013-01-24 07:00:00
5:30 PM,77.0,73.4,89,29.42,6.2,WNW,8.1,-,N/A,,Overcast,300,2013-01-24 07:30:00
6:00 PM,78,73,81,29.46,16,WNW,5.8,,,,Partly Cloudy,290,2013-01-24 08:00:00
6:00 PM,77.0,73.4,89,29.44,6.2,WNW,5.8,-,N/A,,Overcast,290,2013-01-24 08:00:00
6:30 PM,77.0,73.4,89,29.47,6.2,WSW,3.5,-,N/A,Rain,Light Rain Showers,240,2013-01-24 08:30:00
6:54 PM,77.0,73.4,89,29.47,3.1,WNW,5.8,-,N/A,Rain,Light Rain Showers,290,2013-01-24 08:54:00
7:00 PM,77,74,88,29.52,,West,6.9,,,,,280,2013-01-24 09:00:00
7:00 PM,77.0,73.4,89,29.50,1.9,West,6.9,-,N/A,Rain,Light Rain Showers,280,2013-01-24 09:00:00
7:06 PM,77.0,75.2,94,29.50,0.6,SSW,6.9,-,N/A,Rain,Rain Showers,200,2013-01-24 09:06:00
7:26 PM,75.2,75.2,100,29.50,3.1,ESE,5.8,-,N/A,Rain,Light Rain Showers,110,2013-01-24 09:26:00
7:30 PM,75.2,75.2,100,29.50,3.7,SSE,5.8,-,N/A,Rain,Light Rain Showers,150,2013-01-24 09:30:00
8:00 PM,75.2,75.2,100,29.50,3.7,NW,8.1,-,N/A,Rain-Thunderstorm,Light Thunderstorms and Rain,310,2013-01-24 10:00:00
8:30 PM,77.0,75.2,94,29.50,5.0,North,4.6,-,N/A,Rain,Light Rain Showers,350,2013-01-24 10:30:00
9:00 PM,78,74,83,29.50,12,NNW,10.4,,,Rain,Light Rain Showers,330,2013-01-24 11:00:00
9:00 PM,77.0,73.4,89,29.50,6.2,NNW,10.4,-,N/A,,Overcast,330,2013-01-24 11:00:00
9:30 PM,77.0,75.2,94,29.50,6.2,West,5.8,-,N/A,,Overcast,280,2013-01-24 11:30:00
10:00 PM,79,73,76,29.53,,NW,10.4,,,,,310,2013-01-24 12:00:00
10:00 PM,78.8,73.4,83,29.50,6.2,NW,10.4,-,N/A,,Overcast,310,2013-01-24 12:00:00
10:30 PM,78.8,73.4,83,29.50,6.2,WNW,9.2,-,N/A,,Overcast,290,2013-01-24 12:30:00
11:00 PM,78.8,73.4,83,29.53,6.2,WNW,5.8,-,N/A,,Overcast,290,2013-01-24 13:00:00
11:30 PM,78.8,71.6,78,29.53,6.2,WNW,8.1,-,N/A,,Overcast,300,2013-01-24 13:30:00